Regional Weather Roundup
Issued by NWS

Home | Current Version | Previous Version | Graphics & Text | Print | Product List | Glossary On
Versions: 1 2 3 4 5 6 7 8 9 10 11 12 13 14 15 16 17 18 19 20 21 22 23 24 25 26 27 28 29 30 31 32 33 34 35 36 37 38 39 40 41 42 43 44 45 46 47 48 49 50
000
ASUS43 KMPX 251401
RWRMN
WEATHER ROUNDUP FOR MINNESOTA
NATIONAL WEATHER SERVICE TWIN CITIES/CHANHASSEN MN
900 AM CDT FRI MAY 25 2018


NOTE: "FAIR" INDICATES FEW OR NO CLOUDS BELOW 12,000 FEET WITH NO
SIGNIFICANT WEATHER AND/OR OBSTRUCTIONS TO VISIBILITY. N/A MEANS
CURRENT SKY AND/OR WEATHER CONDITIONS ARE NOT AVAILABLE.

MNZ060>063-068>070-251500-
   Twin Cities Metro

CITY           SKY/WX    TMP DP  RH WIND       PRES   REMARKS
TWIN CITIES    FAIR      73  66  78 S9        29.79F
ST PAUL        FAIR      70  64  81 SE6       29.80F
CRYSTAL        FAIR      73  65  75 S8        29.77F
BLAINE         PTSUNNY   72  66  83 S14       29.78F
LAKEVILLE      FAIR      70  66  88 S8        29.81F
EDEN PRAIRIE   FAIR      74  66  76 S8        29.78F
SOUTH ST PAUL  FAIR      70  67  90 SE5       29.80S
LAKE ELMO      FAIR      70  64  83 S8        29.81F
$$
MNZ001>005-007-008-013>017-022>024-027-028-251500-
   Northwest Minnesota

CITY           SKY/WX    TMP DP  RH WIND       PRES   REMARKS
BEMIDJI        FAIR      74  58  58 W7        29.73S
HALLOCK        FAIR      72  61  68 SW7       29.65S
ROSEAU         FAIR      72  61  68 W8        29.65F
WARROAD        FAIR      68  61  77 W8        29.66S
THIEF RVR FALL FAIR      70  60  70 W8        29.71S
CROOKSTON      FAIR      73  59  60 S6        29.69F
FOSSTON        FAIR      72  57  60 S8        29.72F
DETROIT LAKES  FAIR      72  59  64 S5        29.76S
MOORHEAD       FAIR      73  57  56 SW6       29.73S
PARK RAPIDS    FAIR      74  63  68 VRB3      29.74F
MAHNOMEN       FAIR      72  60  64 S10       29.72F
$$
MNZ006-009>011-018-025>026-251500-
   North Central Minnesota

CITY           SKY/WX    TMP DP  RH WIND       PRES   REMARKS
BAUDETTE       FAIR      73  59  61 SW8       29.66S
FLAG ISLAND    FAIR      64  59  82 SE3       29.63S
INTL FALLS     FAIR      72  62  71 SW9       29.67F
WASKISH          N/A     70  61  73 SW6       29.69F
BIG FORK       FAIR      73  63  68 SW6       29.71F
LONGVILLE      FAIR      72  63  73 SW7       29.74F
GRAND RAPIDS   FAIR      70  63  78 S6        29.75F
CRANE LAKE     FAIR      70  63  78 SW6       29.71S
ORR            FAIR      70  61  73 CALM      29.69S
COOK           FAIR      72  63  73 SW6       29.72F
WALKER         FAIR      73  61  67 SW6       29.73F
$$
MNZ012-019>021-037-251500-
   Northeast Minnesota

CITY           SKY/WX    TMP DP  RH WIND       PRES   REMARKS
DULUTH         FAIR      71  61  70 W15G23    29.76S
ELY            FAIR      70  61  73 SW7G16    29.72F
HIBBING        FAIR      71  62  73 SW8       29.73F
EVELETH        FAIR      70  63  78 SW6       29.75F
DULUTH HARBOR  FAIR      68  64  88 SW10      29.75S
TWO HARBORS    FAIR      72  63  73 SW9       29.73S
SILVER BAY     FAIR      72  64  78 S6        29.72F
GRAND MARAIS     N/A     46  45  96 CALM      29.74F
G MARAIS ARPRT FAIR      64  55  72 S6        29.76F
$$
MNZ029>031-032-039>041-046>048-054>057-064-251500-
   West Central Minnesota

CITY           SKY/WX    TMP DP  RH WIND       PRES   REMARKS
FERGUS FALLS   FAIR      72  61  68 CALM      29.71S
WHEATON        SUNNY     75  59  57 SW5       29.77F
MORRIS         SUNNY     79  61  53 W7        29.76S
ALEXANDRIA     FAIR      76  62  62 W7        29.79S
ELBOW LAKE     FAIR      74  59  59 NW3       29.77S
WADENA         FAIR      72  63  73 SW5       29.75F
GLENWOOD       FAIR      72  63  73 W6          N/A
APPLETON       SUNNY     75  61  60 W7        29.77S
BENSON         SUNNY     77  63  61 NW6       29.79S
ORTONVILLE     SUNNY     77  63  61 W6        29.78S
MADISON        SUNNY     82  61  47 W8        29.78S
WILLMAR        FAIR      73  63  68 W5        29.80F
$$
MNZ033>034-036-042>043-049>051-058-059-251500-
   Central Minnesota

CITY           SKY/WX    TMP DP  RH WIND       PRES   REMARKS
ST CLOUD       FAIR      72  63  73 S9        29.77F
SAUK CENTRE    FAIR      73  63  69 SW8       29.77F
PAYNESVILLE    FAIR      72  65  78 S5        29.78F
PINE RIVER     FAIR      70  61  73 SW5       29.78F
BRAINERD       FAIR      71  61  70 S9        29.76F
STAPLES        FAIR      73  61  64 W7        29.75F
LONG PRAIRIE   FAIR      72  61  68 SW6       29.77F
LITTLE FALLS   FAIR      70  63  78 S5        29.77F
LITCHFIELD     FAIR      72  66  83 SW3       29.79S
BUFFALO        FAIR      72  65  76 S9        29.79F
MAPLE LAKE     FAIR      73  67  81 S3        29.80S
HUTCHINSON     FAIR      73  67  80 SW5       29.80S
$$
MNZ037-044-045-052-053-251500-
   East Central Minnesota

CITY           SKY/WX    TMP DP  RH WIND       PRES   REMARKS
PRINCETON      FAIR      75  64  69 S10       29.78F
MORA           FAIR      70  61  73 SW8       29.79F
CAMBRIDGE      FAIR      75  63  64 S9        29.78F
RUSH CITY      FAIR      70  62  75 S8        29.77F
MOOSE LAKE     PTSUNNY   70  61  73 SW9       29.75F
HINCKLEY       FAIR      70  63  78 S7        29.77F
CLOQUET        FAIR      70  59  68 SW10      29.77S
MCGREGOR       FAIR      73  63  68 SW12      29.76F
$$
MNZ071>073-080-081-089-090-097-098-251500-
   Southwest Minnesota

CITY           SKY/WX    TMP DP  RH WIND       PRES   REMARKS
MONTEVIDEO     SUNNY     81  63  54 NW3       29.78S
CANBY          SUNNY     80  60  51 W9        29.80S
MARSHALL       SUNNY     79  64  60 W5        29.80F
REDWOOD FALLS  CLOUDY    72  64  76 W5        29.78F
OLIVIA         CLOUDY    72  64  78 SW3       29.79S
PIPESTONE      SUNNY     75  64  69 NW6       29.84R
WINDOM         MOSUNNY   70  52  52 SW9       29.82S
WORTHINGTON    MOSUNNY   73  64  73 SW10      29.84S
JACKSON        PTSUNNY   72  63  73 SW9       29.84S
TRACY          SUNNY     78  65  65 W3        29.81S
SLAYTON        HVY RAIN  73  63  69 W7        29.84S
$$
MNZ065>067-074>077-082>085-091>093-251500-
   South Central Minnesota

CITY           SKY/WX    TMP DP  RH WIND       PRES   REMARKS
MANKATO        PTSUNNY   76  64  66 SW9       29.81F
NEW ULM        CLOUDY    73  64  73 W7        29.79F
ST JAMES       CLOUDY    75  63  64 SW13      29.81S
FAIRMONT       CLOUDY    75  65  70 SW12      29.82S
GLENCOE        FAIR      74  68  82 S5        29.79F
FARIBAULT      FAIR      73  66  78 CALM      29.82F
OWATONNA       FAIR      73  66  78 SE7       29.83F
WASECA         FAIR      72  63  73 S7        29.84F
ALBERT LEA     FAIR      73  63  68 SW5       29.83F
$$
MNZ078>079-086>088-094>096-251500-
   Southeast Minnesota

CITY           SKY/WX    TMP DP  RH WIND       PRES   REMARKS
ROCHESTER      FAIR      73  65  75 SE10      29.86F
RED WING       FAIR      68  63  83 SE9       29.81S
STANTON        FAIR      72  64  78 S10       29.81S
DODGE CENTER   FAIR      72  64  78 SE10      29.85F
WINONA         TSTM      70  64  83 E8        29.89S
AUSTIN         FAIR      73  64  73 S5        29.84S
PRESTON        FAIR      71  62  73 NE5       29.89F
$$
ABBREVIATIONS USED IN REMARKS
   TC - TEMPERATURES IN CELSIUS
  WCI - WIND CHILL INDEX
   HX - HEAT INDEX
  VSB - VISIBILITY
$$



USA.gov is the U.S. government's official web portal to all federal, state and local government web resources and services.